Suffolk, VA

9:33 PM EDT on September 19, 2017 (GMT -0400)
Suffolk Municipal

Weather History for KSFQ - January, 2013

Change the Weather History Date:

Wednesday, January 30, 2013

  Actual Average Record
Temperature  
Mean Temperature 66 °F -  
Max Temperature 75 °F 50 °F 80 °F (2002)
Min Temperature 57 °F 30 °F -3 °F (2014)
Cooling Degree Days 1    
Growing Degree Days 16 (Base 50)    
Moisture  
Dew Point 61 °F    
Average Humidity 82    
Maximum Humidity 100    
Minimum Humidity 65    
Precipitation  
Precipitation 0.00 in - - ()
Sea Level Pressure  
Sea Level Pressure 29.84 in    
Wind  
Wind Speed 12 mph (South)    
Max Wind Speed 24 mph    
Max Gust Speed 38 mph    
Visibility 10 miles    
Events      
Averages and records for this station are not official NWS values.
T = Trace of Precipitation, MM = Missing Value Source: NWS Daily Summary

Daily Weather History Graph

Daily Weather History Graph

Search for Another Location

Airport or City:

Trip Planner

Search our weather history database for the weather conditions in past years. The results will help you decide how hot, cold, wet, or windy it might be!

Date:

Astronomy

Jan. 30, 2013 Rise Set
Actual Time 7:09 AM EST 5:30 PM EST
Civil Twilight 6:42 AM EST 5:57 PM EST
Nautical Twilight 6:11 AM EST 6:28 PM EST
Astronomical Twilight 5:40 AM EST 6:59 PM EST
Moon 9:18 PM EST (1/30) 8:43 AM EST (1/30)
Length of Visible Light 11h 15m
Length of Day
10h 20m
Waning Gibbous, 88% of the Moon is Illuminated
Jan 30
Waning Gibbous
Feb 3
Last Quarter
Feb 10
New
Feb 17
First Quarter
Feb 25
Full

Hourly Weather History & Observations

Time (EST) Temp. Dew Point Humidity Pressure Visibility Wind Dir Wind Speed Gust Speed Precip Events Conditions
12:15 AM 57.2 °F 55.4 °F 94% 30.09 in 10.0 mi South 5.8 mph - N/A   Clear
12:35 AM 57.2 °F 55.4 °F 94% 30.07 in 10.0 mi South 6.9 mph - N/A   Clear
12:55 AM 59.0 °F 55.4 °F 88% 30.07 in 10.0 mi South 6.9 mph - N/A   Clear
1:15 AM 57.2 °F 55.4 °F 94% 30.06 in 10.0 mi South 6.9 mph - N/A   Clear
1:35 AM 59.0 °F 55.4 °F 88% 30.06 in 10.0 mi South 5.8 mph - N/A   Clear
1:55 AM 59.0 °F 55.4 °F 88% 30.05 in 10.0 mi South 8.1 mph - N/A   Clear
2:15 AM 59.0 °F 55.4 °F 88% 30.05 in 10.0 mi SSW 6.9 mph - N/A   Clear
2:55 AM 57.2 °F 57.2 °F 100% 30.05 in 10.0 mi SSW 6.9 mph - N/A   Clear
3:15 AM 57.2 °F 57.2 °F 100% 30.04 in 10.0 mi South 5.8 mph - N/A   Clear
3:35 AM 57.2 °F 55.4 °F 94% 30.03 in 10.0 mi South 8.1 mph - N/A   Clear
3:55 AM 57.2 °F 57.2 °F 100% 30.02 in 7.0 mi South 6.9 mph - N/A   Clear
4:15 AM 57.2 °F 55.4 °F 94% 30.02 in 7.0 mi South 8.1 mph - N/A   Clear
4:35 AM 57.2 °F 57.2 °F 100% 30.01 in 7.0 mi South 6.9 mph - N/A   Clear
4:55 AM 57.2 °F 57.2 °F 100% 30.01 in 7.0 mi South 6.9 mph - N/A   Clear
5:15 AM 59.0 °F 57.2 °F 94% 30.00 in 7.0 mi South 9.2 mph - N/A   Clear
5:35 AM 59.0 °F 59.0 °F 100% 30.01 in 7.0 mi SSW 6.9 mph - N/A   Scattered Clouds
5:55 AM 59.0 °F 59.0 °F 100% 30.00 in 7.0 mi South 6.9 mph - N/A   Scattered Clouds
6:15 AM 60.8 °F 60.8 °F 100% 30.01 in 5.0 mi SSW 6.9 mph - N/A   Scattered Clouds
6:35 AM 60.8 °F 60.8 °F 100% 30.00 in 7.0 mi SSW 6.9 mph - N/A   Scattered Clouds
7:15 AM 60.8 °F 60.8 °F 100% 29.98 in 7.0 mi South 10.4 mph - N/A   Clear
7:35 AM 60.8 °F 60.8 °F 100% 29.97 in 7.0 mi South 12.7 mph - N/A   Clear
7:55 AM 62.6 °F 60.8 °F 94% 29.98 in 10.0 mi South 10.4 mph - N/A   Clear
8:15 AM 62.6 °F 62.6 °F 100% 29.98 in 10.0 mi South 12.7 mph - N/A   Clear
8:35 AM 64.4 °F 62.6 °F 94% 29.97 in 10.0 mi South 15.0 mph - N/A   Clear
8:55 AM 64.4 °F 62.6 °F 94% 29.97 in 10.0 mi South 13.8 mph 20.7 mph N/A   Clear
9:15 AM 66.2 °F 62.6 °F 88% 29.97 in 10.0 mi SSW 17.3 mph 24.2 mph N/A   Scattered Clouds
9:35 AM 66.2 °F 62.6 °F 88% 29.96 in 10.0 mi SSW 17.3 mph 21.9 mph N/A   Mostly Cloudy
9:55 AM 68.0 °F 64.4 °F 88% 29.95 in 10.0 mi SSW 16.1 mph 24.2 mph N/A   Mostly Cloudy
10:15 AM 69.8 °F 64.4 °F 83% 29.95 in 10.0 mi SSW 18.4 mph 25.3 mph N/A   Mostly Cloudy
10:35 AM 69.8 °F 64.4 °F 83% 29.94 in 10.0 mi South 18.4 mph 31.1 mph N/A   Scattered Clouds
10:55 AM 71.6 °F 64.4 °F 78% 29.93 in 10.0 mi South 17.3 mph 29.9 mph N/A   Scattered Clouds
11:15 AM 71.6 °F 62.6 °F 73% 29.92 in 10.0 mi South 17.3 mph 32.2 mph N/A   Scattered Clouds
11:35 AM 71.6 °F 62.6 °F 73% 29.91 in 10.0 mi SSW 23.0 mph 28.8 mph N/A   Clear
11:55 AM 71.6 °F 62.6 °F 73% 29.89 in 10.0 mi South 20.7 mph 26.5 mph N/A   Clear
12:15 PM 73.4 °F 62.6 °F 69% 29.87 in 10.0 mi South 19.6 mph 28.8 mph N/A   Clear
12:35 PM 73.4 °F 62.6 °F 69% 29.87 in 10.0 mi South 19.6 mph 25.3 mph N/A   Clear
12:55 PM 73.4 °F 62.6 °F 69% 29.86 in 10.0 mi South 15.0 mph 24.2 mph N/A   Scattered Clouds
1:15 PM 75.2 °F 62.6 °F 65% 29.83 in 10.0 mi South 18.4 mph 25.3 mph N/A   Scattered Clouds
1:35 PM 75.2 °F 62.6 °F 65% 29.81 in 10.0 mi South 18.4 mph 27.6 mph N/A   Scattered Clouds
1:55 PM 73.4 °F 62.6 °F 69% 29.80 in 10.0 mi South 18.4 mph 28.8 mph N/A   Overcast
2:15 PM 73.4 °F 62.6 °F 69% 29.79 in 10.0 mi South 21.9 mph 31.1 mph N/A   Overcast
2:35 PM 75.2 °F 62.6 °F 65% 29.77 in 10.0 mi South 20.7 mph 28.8 mph N/A   Mostly Cloudy
2:55 PM 75.2 °F 62.6 °F 65% 29.77 in 10.0 mi South 19.6 mph 28.8 mph N/A   Mostly Cloudy
3:15 PM 75.2 °F 62.6 °F 65% 29.77 in 10.0 mi South 23.0 mph 33.4 mph N/A   Mostly Cloudy
3:35 PM 73.4 °F 62.6 °F 69% 29.76 in 10.0 mi South 24.2 mph 33.4 mph N/A   Mostly Cloudy
3:55 PM 73.4 °F 62.6 °F 69% 29.75 in 10.0 mi South 18.4 mph 29.9 mph N/A   Mostly Cloudy
4:15 PM 73.4 °F 62.6 °F 69% 29.74 in 10.0 mi South 18.4 mph 36.8 mph N/A   Scattered Clouds
4:35 PM 71.6 °F 62.6 °F 73% 29.72 in 10.0 mi South 24.2 mph 28.8 mph N/A   Scattered Clouds
4:55 PM 71.6 °F 62.6 °F 73% 29.72 in 10.0 mi South 13.8 mph 24.2 mph N/A   Clear
5:15 PM 71.6 °F 62.6 °F 73% 29.71 in 10.0 mi South 17.3 mph 25.3 mph N/A   Clear
5:35 PM 71.6 °F 62.6 °F 73% 29.71 in 10.0 mi South 19.6 mph 29.9 mph N/A   Clear
5:55 PM 71.6 °F 62.6 °F 73% 29.71 in 10.0 mi South 24.2 mph 29.9 mph N/A   Clear
6:15 PM 71.6 °F 62.6 °F 73% 29.71 in 10.0 mi South 17.3 mph 26.5 mph N/A   Mostly Cloudy
6:35 PM 69.8 °F 62.6 °F 78% 29.69 in 10.0 mi South 15.0 mph 24.2 mph N/A   Scattered Clouds
6:55 PM 69.8 °F 62.6 °F 78% 29.68 in 10.0 mi South 18.4 mph 32.2 mph N/A   Scattered Clouds
7:15 PM 69.8 °F 62.6 °F 78% 29.68 in 10.0 mi South 21.9 mph 32.2 mph N/A   Mostly Cloudy
7:35 PM 69.8 °F 62.6 °F 78% 29.67 in 10.0 mi South 19.6 mph - N/A   Overcast
7:55 PM 69.8 °F 62.6 °F 78% 29.66 in 10.0 mi South 18.4 mph 31.1 mph N/A   Overcast
8:15 PM 69.8 °F 62.6 °F 78% 29.65 in 10.0 mi South 21.9 mph 32.2 mph N/A   Overcast
8:35 PM 69.8 °F 62.6 °F 78% 29.63 in 10.0 mi South 19.6 mph 29.9 mph N/A   Overcast
8:55 PM 69.8 °F 62.6 °F 78% 29.62 in 10.0 mi South 18.4 mph 28.8 mph N/A   Overcast
9:15 PM 69.8 °F 62.6 °F 78% 29.61 in 10.0 mi South 19.6 mph 28.8 mph N/A   Mostly Cloudy
9:35 PM 69.8 °F 62.6 °F 78% 29.59 in 10.0 mi South 23.0 mph 31.1 mph N/A   Overcast
9:55 PM 69.8 °F 62.6 °F 78% 29.57 in 10.0 mi South 21.9 mph 29.9 mph N/A   Mostly Cloudy
10:15 PM 69.8 °F 62.6 °F 78% 29.56 in 10.0 mi South 20.7 mph 32.2 mph N/A   Mostly Cloudy
10:35 PM 69.8 °F 62.6 °F 78% 29.55 in 10.0 mi South 21.9 mph 31.1 mph N/A   Overcast
10:55 PM 69.8 °F 62.6 °F 78% 29.53 in 10.0 mi South 21.9 mph 32.2 mph N/A   Overcast
11:15 PM 69.8 °F 62.6 °F 78% 29.51 in 10.0 mi South 24.2 mph 33.4 mph N/A   Overcast
11:35 PM 69.8 °F 62.6 °F 78% 29.50 in 10.0 mi South 20.7 mph 33.4 mph N/A   Overcast
11:55 PM 71.6 °F 62.6 °F 73% 29.49 in 10.0 mi South 24.2 mph 38.0 mph N/A   Overcast